Content
SEND FEEDBACK

Daily
Averages
Monthly
Summary
Turkmenistan

ASHGABAT, TURKMENISTAN


Home > Asia > Turkmenistan
Elevation: 775 feet     Latitude: 37 58N     Longitude: 058 20E

WEATHER
 
SELECT A DAY
Number of Records: 177,170;   Date Range: 3/15/97 - 7/23/14
 
SHARE

PRINT THIS DATA

[ ← Previous Day ]
WEATHER ALMANAC - MAY 6, 2014
[ Next Day → ]
[ °C ]   °F
Weather ElementAverageHighLow
Temperature69.3 °F78.8 °F (5:00 pm)62 °F (5:00 am)
Dewpoint55.8 °F60 °F (11:00 am)48.2 °F (6:00 pm)
Humidity62.3 %84 % (5:00 am)34 % (5:00 pm)
Barometer29.98 in30.02 in (8:00 am)29.92 in (7:00 pm)
Wind Speed6.3 mph8.9 mph (7:00 am)
Weather ElementAverage
Visibility6.1 mi
Wind DirectionWSW (243 °)

Weather ElementTotal
Precipitation---
Cooling Degree Days5.4 (Base 65)
Growing Degree Days20.4 (Base 50)
Averaged from 30 records on May 6, 2014
WEATHER CONDITIONS BREAKOUT
WIND DIRECTION BREAKOUT
WEATHER BY HOUR - MAY 6, 2014
[ °C ]   °F
Local TimeTemperatureDewpointHumidityBarometerVisibilityWind DirectionWind SpeedGust SpeedPrecipitationEventsConditions
1:00 AM64.4 °F59.0 °F83 %30.01 in6.2 miSW (230°)6.7 mphRainLight Rain Showers
2:00 AM64.0 °F59.0 °F77 %30.01 in6.0 miSW (220°)6.7 mphRainLight Rain Showers
2:00 AM64.4 °F57.2 °F77 %29.98 in6.2 miSW (220°)6.7 mphRainLight Rain Showers
3:00 AM64.4 °F59.0 °F83 %29.98 in6.2 miSW (230°)4.5 mphRainLight Rain Showers
4:00 AM62.6 °F57.2 °F82 %29.98 in6.2 miWSW (240°)6.7 mphRainLight Rain Showers
5:00 AM62.0 °F58.0 °F84 %30.01 in6.0 miWest (270°)4.5 mphRainLight Rain Showers
5:00 AM62.6 °F57.2 °F82 %30.01 in6.2 miWest (270°)4.5 mphRainLight Rain Showers
6:00 AM62.6 °F57.2 °F82 %30.01 in6.2 miWSW (250°)6.7 mphRainLight Rain Showers
7:00 AM64.4 °F55.4 °F73 %30.01 in6.2 miWSW (240°)8.9 mphOvercast
8:00 AM64.0 °F58.0 °F73 %30.02 in6.0 miSW (220°)4.5 mphPartly Cloudy
8:00 AM64.4 °F57.2 °F77 %30.01 in6.2 miSW (220°)4.5 mphOvercast
9:00 AM66.2 °F57.2 °F73 %30.01 in6.2 miSW (220°)4.5 mphOvercast
10:00 AM68.0 °F57.2 °F68 %30.01 in6.2 miWSW (250°)2.2 mphOvercast
11:00 AM70.0 °F60.0 °F61 %30.02 in6.0 miWSW (250°)6.7 mphPartly Cloudy
11:00 AM71.6 °F57.2 °F60 %30.01 in6.2 miWest (260°)4.5 mphOvercast
11:30 AM73.4 °F55.4 °F53 %30.01 in6.2 miWest (270°)6.7 mphOvercast
12:00 PM73.4 °F53.6 °F50 %30.01 in6.2 miWest (280°)8.9 mphMostly Cloudy
12:30 PM75.2 °F55.4 °F50 %29.98 in6.2 miWest (260°)8.9 mphMostly Cloudy
1:00 PM77.0 °F53.6 °F44 %29.98 in6.2 miWest (270°)6.7 mphMostly Cloudy
5:00 PM77.0 °F54.0 °F34 %29.94 in6.0 miNW (320°)8.9 mphOvercast
5:00 PM78.8 °F51.8 °F39 %29.95 in6.2 miNW (320°)8.9 mphOvercast
6:00 PM78.8 °F48.2 °F34 %29.95 in6.2 miWest (280°)6.7 mphMostly Cloudy
7:00 PM77.0 °F51.8 °F41 %29.92 in6.2 miWSW (250°)8.9 mphMostly Cloudy
8:00 PM73.4 °F53.6 °F50 %29.92 in6.2 miWSW (240°)6.7 mphMostly Cloudy
8:00 PM73.0 °F58.0 °F50 %29.94 in6.0 miSW (230°)6.7 mphMostly Cloudy
9:00 PM71.6 °F53.6 °F53 %29.92 in6.2 miSSW (200°)6.7 mphScattered Clouds
10:00 PM69.8 °F53.6 °F56 %29.92 in5.6 miSSW (200°)4.5 mphClear
11:00 PM68.0 °F55.0 °F53 %29.94 in6.0 miSouth (190°)6.7 mph
11:00 PM68.0 °F55.4 °F64 %29.92 in6.2 miSouth (180°)6.7 mphClear
11:30 PM68.0 °F55.4 °F64 %29.92 in6.2 miSSW (210°)4.5 mphClear
Hourly data recorded from UTAA, located miles away from Ashgabat, Turkmenistan







STORIES FROM OUR PARTNERS